Greenville, ME

8:11 PM EST on December 14, 2017 (GMT -0500)
Greenville

Weather History for KGNR - April, 2013

Change the Weather History Date:

Tuesday, April 2, 2013

  Actual Average (KMLT) Record (KMLT)
Temperature  
Mean Temperature 22 °F -  
Max Temperature 27 °F 44 °F 70 °F (1986)
Min Temperature 17 °F 26 °F -5 °F (1923)
Degree Days  
Heating Degree Days 43    
Moisture  
Dew Point 8 °F    
Average Humidity 58    
Maximum Humidity 81    
Minimum Humidity 41    
Precipitation  
Precipitation 0.01 in - - ()
Sea Level Pressure  
Sea Level Pressure 29.64 in    
Wind  
Wind Speed 6 mph (West)    
Max Wind Speed 8 mph    
Max Gust Speed 22 mph    
Averages and records for this station are not official NWS values.
T = Trace of Precipitation, MM = Missing Value Source: NWS Daily Summary

Daily Weather History Graph

Daily Weather History Graph

Search for Another Location

Airport or City:

Trip Planner

Search our weather history database for the weather conditions in past years. The results will help you decide how hot, cold, wet, or windy it might be!

Date:

Astronomy

Apr. 02, 2013 Rise Set
Actual Time 6:16 AM EDT 7:08 PM EDT
Civil Twilight 5:46 AM EDT 7:38 PM EDT
Nautical Twilight 5:10 AM EDT 8:13 PM EDT
Astronomical Twilight 4:33 AM EDT 8:51 PM EDT
Moon 1:21 AM EDT (4/2) 10:51 AM EDT (4/2)
Length of Visible Light 13h 51m
Length of Day
12h 51m
Waning Gibbous, 56% of the Moon is Illuminated
Apr 2
Waning Gibbous
Apr 3
Last Quarter
Apr 10
New
Apr 18
First Quarter
Apr 25
Full

Hourly Weather History & Observations

Time (EDT) Temp. Windchill Dew Point Humidity Pressure Visibility Wind Dir Wind Speed Gust Speed Precip Events Conditions
12:56 AM 23.0 °F 14.7 °F 14.0 °F 68% 29.59 in - Variable 6.9 mph 18.4 mph N/A   Unknown
1:56 AM 21.9 °F 13.4 °F 10.9 °F 63% 29.60 in - Variable 6.9 mph - N/A   Unknown
2:56 AM 21.0 °F 14.6 °F 14.0 °F 74% 29.60 in - Variable 4.6 mph - N/A   Unknown
3:56 AM 19.0 °F 12.3 °F 10.0 °F 68% 29.61 in - Variable 4.6 mph - N/A   Unknown
4:56 AM 18.0 °F 8.7 °F 7.0 °F 62% 29.62 in - Variable 6.9 mph - N/A   Unknown
5:56 AM 17.1 °F 8.7 °F 3.9 °F 56% 29.63 in - Variable 5.8 mph - N/A   Unknown
6:56 AM 17.1 °F 7.6 °F 3.0 °F 54% 29.66 in - Variable 6.9 mph - N/A   Unknown
7:56 AM 19.0 °F 12.3 °F 3.9 °F 52% 29.66 in - Variable 4.6 mph - N/A   Unknown
8:56 AM 21.0 °F 11.4 °F 3.9 °F 48% 29.66 in - WNW 8.1 mph - N/A   Unknown
9:56 AM 21.9 °F 14.5 °F 5.0 °F 48% 29.65 in - Variable 5.8 mph - N/A   Unknown
10:56 AM 21.9 °F 13.4 °F 3.9 °F 46% 29.66 in - Variable 6.9 mph - N/A   Unknown
11:56 AM 25.0 °F 19.3 °F 6.1 °F 45% 29.65 in - Variable 4.6 mph - N/A   Unknown
12:56 PM 25.0 °F 17.1 °F 5.0 °F 43% 29.64 in - Variable 6.9 mph 17.3 mph N/A   Unknown
1:56 PM 27.0 °F 18.7 °F 6.1 °F 41% 29.62 in - WSW 8.1 mph - N/A   Unknown
2:56 PM 27.0 °F 20.5 °F 6.1 °F 41% 29.62 in - Variable 5.8 mph 19.6 mph N/A   Unknown
3:56 PM 25.0 °F - 7.0 °F 46% 29.62 in - Calm Calm - N/A   Unknown
4:56 PM 24.1 °F 16.0 °F 6.1 °F 46% 29.64 in - Variable 6.9 mph 17.3 mph N/A   Unknown
5:56 PM 21.9 °F - 9.0 °F 58% 29.66 in - Calm Calm - N/A   Unknown
6:56 PM 19.9 °F 14.9 °F 12.9 °F 74% 29.68 in - Variable 3.5 mph - N/A   Unknown
7:56 PM 19.9 °F 13.4 °F 12.0 °F 71% 29.69 in - Variable 4.6 mph - N/A   Unknown
8:56 PM 19.9 °F - 9.0 °F 62% 29.69 in - Calm Calm - N/A   Unknown
9:56 PM 19.9 °F - 12.9 °F 74% 29.69 in - Calm Calm - N/A   Unknown
10:56 PM 19.9 °F 10.1 °F 10.9 °F 68% 29.67 in - West 8.1 mph 21.9 mph 0.01 in   Unknown
11:56 PM 18.0 °F 8.7 °F 12.9 °F 81% 29.67 in - Variable 6.9 mph - N/A   Unknown